Regional Weather Roundup
Issued by NWS Sterling, VA

Home | Current Version | Previous Version | Text Only | Print | Product List | Glossary Off
Versions: 1 2 3 4 5 6 7 8 9 10 11 12 13 14 15 16 17 18 19 20 21 22 23 24 25 26 27 28 29 30 31 32 33 34 35 36 37 38 39 40 41 42 43 44 45 46 47 48 49 50

000
ASUS41 KLWX 282110
RWRLWX

REGIONAL WEATHER ROUNDUP
NATIONAL WEATHER SERVICE BALTIMORE MD/WASHINGTON DC
500 PM EDT TUE JUL 28 2015

Note: "FAIR" indicates few or no clouds below 12,000 feet
with no significant weather and/or obstructions to visibility.
 TC=TEMPERATURE CELSIUS

 * =Non NWS site. Station does not report precipitation (e.g. rain,
    snow, etc.), thunder, or fog.

DCZ001-MDZ009-015-VAZ040>042-051-053>054-282200-
WASHINGTON METRO

CITY           SKY/WX    TMP DP  RH WIND       PRES   REMARKS
WASHINGTON NAT PTSUNNY   90  73  57 E12       29.96S HX  98
DULLES         PTSUNNY   87  71  58 CALM      29.96S HX  93
ANDREWS AFB    SUNNY     85  74  68 E7        29.96S HX  92
FT BELVOIR     PTSUNNY   88  74  62 SE7       29.95S HX  96
QUANTICO       SUNNY     90  74  59 S5        29.95S HX  99
COLLEGE PARK*  SUNNY     90  72  55 SE3       29.96S HX  96
LEESBURG*      PTSUNNY   91  72  52 E6        29.97F HX  98
MANASSAS*      CLOUDY    88  73  62 SE8         N/A  HX  96
GAITHERSBURG*  SUNNY     88  70  55 SE3       30.00F HX  92

$$

MDZ006>007-011-014-282200-
BALTIMORE METRO

CITY           SKY/WX    TMP DP  RH WIND       PRES   REMARKS
BWI AIRPORT    MOSUNNY   89  68  49 SE5       29.96S HX  93
MD SCIENCE CTR   N/A     90  67  46 MISG      29.96F HX  93
MARTIN STATE   MOSUNNY   90  72  55 SE3       29.97F HX  96
ANNAPOLIS      SUNNY     86  72  62 SE6       29.96S HX  92
FORT MEADE*    PTSUNNY   82  72  69 SE5       29.99S

$$

MDZ012-015-019>023-282200-
MARYLAND EASTERN SHORE

CITY           SKY/WX    TMP DP  RH WIND       PRES   REMARKS
OCEAN CITY     MOSUNNY   81  73  76 SW10G18   29.99R
SALISBURY      TSTM      73  72  96 SE14      29.98R
BAY BRIDGE AP*   N/A     86  72  62 W5        29.97F HX  92
CAMBRIDGE*     SUNNY     84  73  70 SW3       29.97S HX  91

$$

MDZ017>025-282200-
SOUTHERN MARYLAND

CITY           SKY/WX    TMP DP  RH WIND       PRES   REMARKS
PATUXENT RIVER MOSUNNY   85  74  69 SW13      29.98R HX  92
ST INIGOES     MOSUNNY   85  75  72 S8        29.98R HX  93
LEONARDTOWN*   PTSUNNY   82  70  65 S6        29.99S

$$

MDZ003>005-282200-
NORTH CENTRAL MARYLAND

CITY           SKY/WX    TMP DP  RH WIND       PRES   REMARKS
FREDERICK*     MOSUNNY   91  72  52 VRB5      29.99F HX  98
HAGERSTOWN APT MOSUNNY   89  66  46 VRB3      29.98F HX  91
WESTMINSTER*   SUNNY     90  73  58 CALM      30.00F HX  98

$$

MDZ501>502-282200-
WESTERN MARYLAND

CITY           SKY/WX    TMP DP  RH WIND       PRES   REMARKS
OAKLAND*       SUNNY     81  79  94 SE6       30.10F
CUMBERLAND*    SUNNY     90  66  45 E7        30.01F HX  92

$$

VAZ025>031-282200-
SHENANDOAH VALLEY

CITY           SKY/WX    TMP DP  RH WIND       PRES   REMARKS
WINCHESTER*    PTSUNNY   90  72  55 SE6       29.97F HX  96
FRONT ROYAL*   CLOUDY    84  73  70 E3        29.96F HX  91
LURAY*         FAIR      86  73  66 CALM      29.99S HX  93
NEW MARKET*    FAIR      81  73  77 SW5       29.97R
STAUNTON*      PTSUNNY   88  70  55 CALM      30.01F HX  93
WAYNESBORO*    FAIR      85  70  60 E6        30.00F HX  90

$$

WVZ021-048>050-054>055-282200-
EASTERN WEST VIRGINIA PANHANDLE

CITY           SKY/WX    TMP DP  RH WIND       PRES   REMARKS
MARTINSBURG    MOSUNNY   89  68  49 VRB3      29.97F HX  93
PETERSBURG*    RAIN     N/A N/A N/A SE5       30.04R

$$

VAZ036>039-050-282200-
CENTRAL FOOTHILLS

CITY           SKY/WX    TMP DP  RH WIND       PRES   REMARKS
CHARLOTTESVILL MOSUNNY   85  74  69 NE7       29.96F HX  92
CULPEPER*      MOSUNNY   85  74  71 CALM      29.96S HX  92
ORANGE*        MOSUNNY   88  75  66 S5        29.97F HX  97
GORDONSVILLE*  FAIR      86  75  70 SE6       29.95F HX  95
WARRENTON*     FAIR      88  76  67 CALM      29.96S HX 100

$$

VAZ055>057-282200-
NORTH AND CENTRAL PIEDMONT

CITY           SKY/WX    TMP DP  RH WIND       PRES   REMARKS
FREDERICKSBRG* PTSUNNY   83  75  77 S15G24    29.95R
STAFFORD*      MOSUNNY   88  71  56 E7        29.99S HX  93

$$

NCZ024-NYZ072-PAZ021-071-VAZ022-071-282200-
OTHER REGIONAL OBSERVATIONS

CITY           SKY/WX    TMP DP  RH WIND       PRES   REMARKS
NEW YORK CITY  MOSUNNY   93  59  31 NE6       29.97S HX  92
PHILADELPHIA   PTSUNNY   90  68  48 NW8       29.95F HX  94
PITTSBURGH     MOSUNNY   90  62  39 VRB5      30.00F HX  90
ROANOKE        MOSUNNY   86  69  56 SW7       29.98F HX  90
RICHMOND       PTSUNNY   82  71  69 S7        29.98S
RALEIGH        PTSUNNY   87  71  58 SE6       29.98R HX  93

$$

ANZ530>537-282200-
MARINE OBSERVATIONS

STATION/POSITION TIME  TEMP    WIND        PRES
                       AIR SEA DIR/SP/G
                 (UTC) (F)     (DEG/KT/KT) (MB)
THOMAS PT LIGHT  NOT AVBL
BALT KEY BRIDGE  2000   84     120/  5/  7 1014.8R
COVE POINT       2000   81     190/ 11/ 12 1015.6F
LEWISETTA        2000   83 85  190/  7/  9 1014.6F
SOLOMONS ISLAND  2000      82                N/A

$$




USA.gov is the U.S. government's official web portal to all federal, state and local government web resources and services.